Tracking 27079 objects as of 24-Mar-2023
HD Live streaming from Space Station
objects crossing your sky now

STARLINK-2004

Track STARLINK-2004 now!
10-day predictions
STARLINK-2004 is classified as:


NORAD ID: 47599
Int'l Code: 2021-009BD
Perigee: 553.4 km
Apogee: 555.4 km
Inclination: 53.1 °
Period: 95.6 minutes
Semi major axis: 6925 km
RCS: Unknown
Launch date: February 4, 2021
Source: United States (US)
Launch site: AIR FORCE EASTERN TEST RANGE (AFETR)
Your satellite tracking list
Your tracking list is empty




NASA's NSSDC Master Catalog

Two Line Element Set (TLE):
1 47599U 21009BD  23082.57632844  .00034032  00000-0  22945-2 0  9996
2 47599  53.0541 179.4126 0001444  79.2136 280.9016 15.06368550117975
Source of the keplerian elements: AFSPC